Year,Month,Day,Hour,Minute,Value (Times are PST for temperature in C)
2007,09,18,00,00,10.90
2007,09,18,00,01,10.90
2007,09,18,00,02,10.90
2007,09,18,00,03,10.90
2007,09,18,00,04,10.90
2007,09,18,00,05,10.90
2007,09,18,00,06,10.90
2007,09,18,00,07,10.90
2007,09,18,00,08,10.90
2007,09,18,00,09,10.90
2007,09,18,00,10,10.90
2007,09,18,00,11,10.90
2007,09,18,00,12,10.90
2007,09,18,00,13,10.90
2007,09,18,00,14,10.90
2007,09,18,00,15,11.00
2007,09,18,00,16,11.00
2007,09,18,13,30,15.40
2007,09,18,13,31,15.40
2007,09,18,13,32,15.50
2007,09,18,13,33,15.50
2007,09,18,13,34,15.60
2007,09,18,13,35,15.60
2007,09,18,13,36,15.60
2007,09,18,13,37,15.60
2007,09,18,13,38,15.70
2007,09,18,13,39,15.80
2007,09,18,13,40,15.90
2007,09,18,13,41,15.90
2007,09,18,13,42,16.00
2007,09,18,13,43,16.20
2007,09,18,13,44,16.20
2007,09,18,13,45,16.30
2007,09,18,13,46,16.30
2007,09,18,13,47,16.40
2007,09,18,13,48,16.40
2007,09,18,13,49,16.40
2007,09,18,13,50,16.40
2007,09,18,13,51,16.40
2007,09,18,13,52,16.40
2007,09,18,13,53,16.40
2007,09,18,13,54,16.30
2007,09,18,13,55,16.10
2007,09,18,13,56,15.90
2007,09,18,13,57,15.80
2007,09,18,13,58,15.80
2007,09,18,13,59,15.80
2007,09,18,14,00,15.80
2007,09,18,14,01,15.80
2007,09,18,14,02,15.70
2007,09,18,14,03,15.70
2007,09,18,14,04,15.70
2007,09,18,14,05,15.70
2007,09,18,14,06,15.70
2007,09,18,14,07,15.70
2007,09,18,14,08,15.70
2007,09,18,14,09,15.70
2007,09,18,14,10,15.80
2007,09,18,14,11,15.80
2007,09,18,14,12,15.80
2007,09,18,14,13,15.90
2007,09,18,14,14,16.00
2007,09,18,14,15,16.00
2007,09,18,14,16,15.90
2007,09,18,14,17,15.90
2007,09,18,14,18,15.80
2007,09,18,14,19,15.80
2007,09,18,14,20,15.80
2007,09,18,14,21,15.80
2007,09,18,14,22,15.90
2007,09,18,14,23,15.90
2007,09,18,14,24,15.90
2007,09,18,14,25,15.90
2007,09,18,14,26,15.90
2007,09,18,14,27,15.90
2007,09,18,14,28,16.00
2007,09,18,14,29,16.00
2007,09,18,14,30,16.00
2007,09,18,14,31,15.90
2007,09,18,14,32,16.00
2007,09,18,14,33,15.90
2007,09,18,14,34,15.90
2007,09,18,14,35,15.90
2007,09,18,14,36,15.80
2007,09,18,14,37,15.90
2007,09,18,14,38,15.90
2007,09,18,14,39,15.90
2007,09,18,14,40,15.80
2007,09,18,14,41,15.70
2007,09,18,14,42,15.70
2007,09,18,14,43,15.70
2007,09,18,14,44,15.70
2007,09,18,14,45,15.70
2007,09,18,14,46,15.80
2007,09,18,14,47,15.80
2007,09,18,14,48,15.80
2007,09,18,14,49,15.80
2007,09,18,14,50,15.90
2007,09,18,14,51,15.80
2007,09,18,14,52,15.80
2007,09,18,14,53,15.80
2007,09,18,14,54,15.80
2007,09,18,14,55,15.70
2007,09,18,14,56,15.70
2007,09,18,14,57,15.70
2007,09,18,14,58,15.60
2007,09,18,14,59,15.60
2007,09,18,15,00,15.70
2007,09,18,15,01,15.70
2007,09,18,15,02,15.70
2007,09,18,15,03,15.60
2007,09,18,15,04,15.50
2007,09,18,15,05,15.50
2007,09,18,15,06,15.40
2007,09,18,15,07,15.40
2007,09,18,15,08,15.40
2007,09,18,15,09,15.40
2007,09,18,15,10,15.40
2007,09,18,15,11,15.40
2007,09,18,15,12,15.50
2007,09,18,15,13,15.50
2007,09,18,15,14,15.60
2007,09,18,15,15,15.60
2007,09,18,15,16,15.60
2007,09,18,15,17,15.50
2007,09,18,15,18,15.50
2007,09,18,15,19,15.40
2007,09,18,15,20,15.30
2007,09,18,15,21,15.20
2007,09,18,15,22,15.20
2007,09,18,15,23,15.20
2007,09,18,15,24,15.20
2007,09,18,15,25,15.20
2007,09,18,15,26,15.10
2007,09,18,15,27,15.10
2007,09,18,15,28,15.10
2007,09,18,15,29,15.10
2007,09,18,15,30,15.20
2007,09,18,15,31,15.20
2007,09,18,15,32,15.20
2007,09,18,15,33,15.20
2007,09,18,15,34,15.20
2007,09,18,15,35,15.20
2007,09,18,15,36,15.10
2007,09,18,15,37,15.00
2007,09,18,15,38,15.00
2007,09,18,15,39,15.10
2007,09,18,15,40,15.10
2007,09,18,15,41,15.10
2007,09,18,15,42,15.20
2007,09,18,15,43,15.20
2007,09,18,15,44,15.20
2007,09,18,15,45,15.30
2007,09,18,15,46,15.40
2007,09,18,15,47,15.50
2007,09,18,15,48,15.50
2007,09,18,15,49,15.50
2007,09,18,15,50,15.50
2007,09,18,15,51,15.60
2007,09,18,15,52,15.70
2007,09,18,15,53,15.80
2007,09,18,15,54,15.80
2007,09,18,15,55,15.80
2007,09,18,15,56,15.90
2007,09,18,15,57,15.90
2007,09,18,15,58,16.00
2007,09,18,15,59,16.00
2007,09,18,16,00,16.00
2007,09,18,16,01,16.10
2007,09,18,16,02,16.10
2007,09,18,16,03,16.20
2007,09,18,16,04,16.20
2007,09,18,16,05,16.20
2007,09,18,16,06,16.20
2007,09,18,16,07,16.20
2007,09,18,16,08,16.20
2007,09,18,16,09,16.20
2007,09,18,16,10,16.20
2007,09,18,16,11,16.30
2007,09,18,16,12,16.50
2007,09,18,16,13,16.60
2007,09,18,16,14,16.80
2007,09,18,16,15,16.80
2007,09,18,16,16,16.90
2007,09,18,16,17,16.90
2007,09,18,16,18,16.90
2007,09,18,16,19,16.90
2007,09,18,16,20,16.90
2007,09,18,16,21,16.90
2007,09,18,16,22,16.90
2007,09,18,16,23,16.80
2007,09,18,16,24,16.80
2007,09,18,16,25,16.70
2007,09,18,16,26,16.70
2007,09,18,16,27,16.70
2007,09,18,16,28,16.70
2007,09,18,16,29,16.60
2007,09,18,16,30,16.50
2007,09,18,16,31,16.40
2007,09,18,16,32,16.20
2007,09,18,16,33,16.10
2007,09,18,16,34,16.10
2007,09,18,16,35,16.10
2007,09,18,16,36,16.10
2007,09,18,16,37,16.10
2007,09,18,16,38,16.10
2007,09,18,16,39,16.10
2007,09,18,16,40,16.10
2007,09,18,16,41,16.10
2007,09,18,16,42,16.20
2007,09,18,16,43,16.30
2007,09,18,16,44,16.30
2007,09,18,16,45,16.30
2007,09,18,16,46,16.30
2007,09,18,16,47,16.40
2007,09,18,16,48,16.50
2007,09,18,16,49,16.50
2007,09,18,16,50,16.60
2007,09,18,16,51,16.50
2007,09,18,16,52,16.50
2007,09,18,16,53,16.40
2007,09,18,16,54,16.40
2007,09,18,16,55,16.30
2007,09,18,16,56,16.30
2007,09,18,16,57,16.40
2007,09,18,16,58,16.40
2007,09,18,16,59,16.40
2007,09,18,17,00,16.50
2007,09,18,17,01,16.50
2007,09,18,17,02,16.60
2007,09,18,17,03,16.60
2007,09,18,17,04,16.60
2007,09,18,17,05,16.40
2007,09,18,17,06,16.20
2007,09,18,17,07,16.10
2007,09,18,17,08,16.00
2007,09,18,17,09,16.00
2007,09,18,17,10,16.00
2007,09,18,17,11,16.00
2007,09,18,17,12,16.10
2007,09,18,17,13,16.20
2007,09,18,17,14,16.20
2007,09,18,17,15,16.20
2007,09,18,17,16,16.10
2007,09,18,17,17,16.10
2007,09,18,17,18,16.20
2007,09,18,17,19,16.30
2007,09,18,17,20,16.30
2007,09,18,17,21,16.30
2007,09,18,17,22,16.20
2007,09,18,17,23,16.20
2007,09,18,17,24,16.10
2007,09,18,17,25,16.00
2007,09,18,17,26,15.90
2007,09,18,17,27,15.80
2007,09,18,17,28,15.60
2007,09,18,17,29,15.40
2007,09,18,17,30,15.30
2007,09,18,17,31,15.10
2007,09,18,17,32,15.00
2007,09,18,17,33,14.90
2007,09,18,17,34,14.80
2007,09,18,17,35,14.60
2007,09,18,17,36,14.40
2007,09,18,17,37,14.30
2007,09,18,17,38,14.20
2007,09,18,17,39,14.10
2007,09,18,17,40,14.10
2007,09,18,17,41,14.10
2007,09,18,17,42,14.10
2007,09,18,17,43,14.10
2007,09,18,17,44,14.10
2007,09,18,17,45,14.10
2007,09,18,17,46,14.10
2007,09,18,17,47,14.10
2007,09,18,17,48,14.20
2007,09,18,17,49,14.20
2007,09,18,17,50,14.20
2007,09,18,17,51,14.20
2007,09,18,17,52,14.10
2007,09,18,17,53,14.10
2007,09,18,17,54,14.00
2007,09,18,17,55,14.00
2007,09,18,17,56,14.00
2007,09,18,17,57,14.00
2007,09,18,17,58,14.00
2007,09,18,17,59,14.00
2007,09,18,18,00,14.00
2007,09,18,18,01,13.90
2007,09,18,18,02,13.90
2007,09,18,18,03,13.90
2007,09,18,18,04,13.80
2007,09,18,18,05,13.80
2007,09,18,18,06,13.80
2007,09,18,18,07,13.80
2007,09,18,18,08,13.70
2007,09,18,18,09,13.60
2007,09,18,18,10,13.50
2007,09,18,18,11,13.40
2007,09,18,18,12,13.30
2007,09,18,18,13,13.30
2007,09,18,18,14,13.20
2007,09,18,18,15,13.20
2007,09,18,18,16,13.10
2007,09,18,18,17,13.10
2007,09,18,18,18,13.10
2007,09,18,18,19,13.00
2007,09,18,18,20,13.00
2007,09,18,18,21,13.00
2007,09,18,18,22,12.90
2007,09,18,18,23,12.90
2007,09,18,18,24,12.90
2007,09,18,18,25,12.90
2007,09,18,18,26,12.90
2007,09,18,18,27,12.90
2007,09,18,18,28,12.90
2007,09,18,18,29,12.90
2007,09,18,18,30,12.90
2007,09,18,18,31,12.90
2007,09,18,18,32,12.90
2007,09,18,18,33,12.80
2007,09,18,18,34,12.80
2007,09,18,18,35,12.80
2007,09,18,18,36,12.70
2007,09,18,18,37,12.60
2007,09,18,18,38,12.60
2007,09,18,18,39,12.50
2007,09,18,18,40,12.50
2007,09,18,18,41,12.40
2007,09,18,18,42,12.40
2007,09,18,18,43,12.30
2007,09,18,18,44,12.30
2007,09,18,18,45,12.30
2007,09,18,18,46,12.30
2007,09,18,18,47,12.20
2007,09,18,18,48,12.20
2007,09,18,18,49,12.20
2007,09,18,18,50,12.20
2007,09,18,18,51,12.10
2007,09,18,18,52,12.10
2007,09,18,18,53,12.00
2007,09,18,18,54,12.00
2007,09,18,18,55,11.90
2007,09,18,18,56,11.90
2007,09,18,18,57,11.90
2007,09,18,18,58,11.80
2007,09,18,18,59,11.80
2007,09,18,19,00,11.80
2007,09,18,19,01,11.80
2007,09,18,19,02,11.70
2007,09,18,19,03,11.70
2007,09,18,19,04,11.70
2007,09,18,19,05,11.60
2007,09,18,19,06,11.60
2007,09,18,19,07,11.60
2007,09,18,19,08,11.60
2007,09,18,19,09,11.50
2007,09,18,19,10,11.50
2007,09,18,19,11,11.50
2007,09,18,19,12,11.50
2007,09,18,19,13,11.50
2007,09,18,19,14,11.50
2007,09,18,19,15,11.50
2007,09,18,19,16,11.40
2007,09,18,19,17,11.50
2007,09,18,19,18,11.40
2007,09,18,19,19,11.40
2007,09,18,19,20,11.40
2007,09,18,19,21,11.40
2007,09,18,19,22,11.40
2007,09,18,19,23,11.40
2007,09,18,19,24,11.40
2007,09,18,19,25,11.40
2007,09,18,19,26,11.40
2007,09,18,19,27,11.40
2007,09,18,19,28,11.40
2007,09,18,19,29,11.40
2007,09,18,19,30,11.40
2007,09,18,19,31,11.40
2007,09,18,19,32,11.30
2007,09,18,19,33,11.30
2007,09,18,19,34,11.30
2007,09,18,19,35,11.30
2007,09,18,19,36,11.30
2007,09,18,19,37,11.30
2007,09,18,19,38,11.30
2007,09,18,19,39,11.30
2007,09,18,19,40,11.30
2007,09,18,19,41,11.30
2007,09,18,19,42,11.30
2007,09,18,19,43,11.30
2007,09,18,19,44,11.30
2007,09,18,19,45,11.30
2007,09,18,19,46,11.30
2007,09,18,19,47,11.30
2007,09,18,19,48,11.30
2007,09,18,19,49,11.30
2007,09,18,19,50,11.30
2007,09,18,19,51,11.30
2007,09,18,19,52,11.30
2007,09,18,19,53,11.30
2007,09,18,19,54,11.30
2007,09,18,19,55,11.30
2007,09,18,19,56,11.30
2007,09,18,19,57,11.30
2007,09,18,19,58,11.30
2007,09,18,19,59,11.20
2007,09,18,20,00,11.20
2007,09,18,20,01,11.20
2007,09,18,20,02,11.20
2007,09,18,20,03,11.20
2007,09,18,20,04,11.20
2007,09,18,20,05,11.20
2007,09,18,20,06,11.20
2007,09,18,20,07,11.10
2007,09,18,20,08,11.10
2007,09,18,20,09,11.10
2007,09,18,20,10,11.10
2007,09,18,20,11,11.10
2007,09,18,20,12,11.10
2007,09,18,20,13,11.00
2007,09,18,20,14,11.00
2007,09,18,20,15,11.00
2007,09,18,20,16,11.00
2007,09,18,20,17,10.90
2007,09,18,20,18,10.90
2007,09,18,20,19,10.90
2007,09,18,20,20,10.90
2007,09,18,20,21,10.90
2007,09,18,20,22,10.90
2007,09,18,20,23,10.80
2007,09,18,20,24,10.80
2007,09,18,20,25,10.80
2007,09,18,20,26,10.80
2007,09,18,20,27,10.80
2007,09,18,20,28,10.80
2007,09,18,20,29,10.80
2007,09,18,20,30,10.80
2007,09,18,20,31,10.80
2007,09,18,20,32,10.80
2007,09,18,20,33,10.80
2007,09,18,20,34,10.80
2007,09,18,20,35,10.80
2007,09,18,20,36,10.80
2007,09,18,20,37,10.80
2007,09,18,20,38,10.80
2007,09,18,20,39,10.80
2007,09,18,20,40,10.80
2007,09,18,20,41,10.80
2007,09,18,20,42,10.80
2007,09,18,20,43,10.80
2007,09,18,20,44,10.80
2007,09,18,20,45,10.80
2007,09,18,20,46,10.80
2007,09,18,20,47,10.80
2007,09,18,20,48,10.80
2007,09,18,20,49,10.80
2007,09,18,20,50,10.80
2007,09,18,20,51,10.80
2007,09,18,20,52,10.70
2007,09,18,20,53,10.70
2007,09,18,20,54,10.70
2007,09,18,20,55,10.70
2007,09,18,20,56,10.70
2007,09,18,20,57,10.70
2007,09,18,20,58,10.70
2007,09,18,20,59,10.60
2007,09,18,21,00,10.60
2007,09,18,21,01,10.60
2007,09,18,21,02,10.60
2007,09,18,21,03,10.60
2007,09,18,21,04,10.60
2007,09,18,21,05,10.60
2007,09,18,21,06,10.60
2007,09,18,21,07,10.60
2007,09,18,21,08,10.60
2007,09,18,21,09,10.60
2007,09,18,21,10,10.60
2007,09,18,21,11,10.60
2007,09,18,21,12,10.60
2007,09,18,21,13,10.60
2007,09,18,21,14,10.60
2007,09,18,21,15,10.60
2007,09,18,21,16,10.60
2007,09,18,21,17,10.60
2007,09,18,21,18,10.60
2007,09,18,21,19,10.70
2007,09,18,21,20,10.70
2007,09,18,21,21,10.70
2007,09,18,21,22,10.70
2007,09,18,21,23,10.70
2007,09,18,21,24,10.70
2007,09,18,21,25,10.70
2007,09,18,21,26,10.80
2007,09,18,21,27,10.80
2007,09,18,21,28,10.80
2007,09,18,21,29,10.80
2007,09,18,21,30,10.80
2007,09,18,21,31,10.80
2007,09,18,21,32,10.80
2007,09,18,21,33,10.80
2007,09,18,21,34,10.80
2007,09,18,21,35,10.80
2007,09,18,21,36,10.80
2007,09,18,21,37,10.70
2007,09,18,21,38,10.70
2007,09,18,21,39,10.70
2007,09,18,21,40,10.70
2007,09,18,21,41,10.70
2007,09,18,21,42,10.70
2007,09,18,21,43,10.70
2007,09,18,21,44,10.60
2007,09,18,21,45,10.60
2007,09,18,21,46,10.60
2007,09,18,21,47,10.60
2007,09,18,21,48,10.60
2007,09,18,21,49,10.60
2007,09,18,21,50,10.60
2007,09,18,21,51,10.50
2007,09,18,21,52,10.50
2007,09,18,21,53,10.50
2007,09,18,21,54,10.50
2007,09,18,21,55,10.40
2007,09,18,21,56,10.40
2007,09,18,21,57,10.40
2007,09,18,21,58,10.40
2007,09,18,21,59,10.40
2007,09,18,22,00,10.40
2007,09,18,22,01,10.30
2007,09,18,22,02,10.30
2007,09,18,22,03,10.30
2007,09,18,22,04,10.30
2007,09,18,22,05,10.30
2007,09,18,22,06,10.30
2007,09,18,22,07,10.30
2007,09,18,22,08,10.30
2007,09,18,22,09,10.30
2007,09,18,22,10,10.30
2007,09,18,22,11,10.30
2007,09,18,22,12,10.30
2007,09,18,22,13,10.30
2007,09,18,22,14,10.30
2007,09,18,22,15,10.30
2007,09,18,22,16,10.40
2007,09,18,22,17,10.40
2007,09,18,22,18,10.40
2007,09,18,22,19,10.40
2007,09,18,22,20,10.40
2007,09,18,22,21,10.40
2007,09,18,22,22,10.40
2007,09,18,22,23,10.40
2007,09,18,22,24,10.40
2007,09,18,22,25,10.40
2007,09,18,22,26,10.50
2007,09,18,22,27,10.50
2007,09,18,22,28,10.50
2007,09,18,22,29,10.60
2007,09,18,22,30,10.60
2007,09,18,22,31,10.60
2007,09,18,22,32,10.60
2007,09,18,22,33,10.60
2007,09,18,22,34,10.60
2007,09,18,22,35,10.70
2007,09,18,22,36,10.70
2007,09,18,22,37,10.70
2007,09,18,22,38,10.70
2007,09,18,22,39,10.70
2007,09,18,22,40,10.70
2007,09,18,22,41,10.70
2007,09,18,22,42,10.70
2007,09,18,22,43,10.80
2007,09,18,22,44,10.80
2007,09,18,22,45,10.80
2007,09,18,22,46,10.80
2007,09,18,22,47,10.80
2007,09,18,22,48,10.80
2007,09,18,22,49,10.80
2007,09,18,22,50,10.80
2007,09,18,22,51,10.80
2007,09,18,22,52,10.80
2007,09,18,22,53,10.80
2007,09,18,22,54,10.80
2007,09,18,22,55,10.80
2007,09,18,22,56,10.80
2007,09,18,22,57,10.80
2007,09,18,22,58,10.80
2007,09,18,22,59,10.80
2007,09,18,23,00,10.80
2007,09,18,23,01,10.80
2007,09,18,23,02,10.80
2007,09,18,23,03,10.80
2007,09,18,23,04,10.80
2007,09,18,23,05,10.80
2007,09,18,23,06,10.80
2007,09,18,23,07,10.80
2007,09,18,23,08,10.80
2007,09,18,23,09,10.80
2007,09,18,23,10,10.80
2007,09,18,23,11,10.80
2007,09,18,23,12,10.80
2007,09,18,23,13,10.80
2007,09,18,23,14,10.80
2007,09,18,23,15,10.80
2007,09,18,23,16,10.80
2007,09,18,23,17,10.80
2007,09,18,23,18,10.80
2007,09,18,23,19,10.80
2007,09,18,23,20,10.80
2007,09,18,23,21,10.80
2007,09,18,23,22,10.80
2007,09,18,23,23,10.80
2007,09,18,23,24,10.80
2007,09,18,23,25,10.80
2007,09,18,23,26,10.80
2007,09,18,23,27,10.80
2007,09,18,23,28,10.80
2007,09,18,23,29,10.80
2007,09,18,23,30,10.80
2007,09,18,23,31,10.80
2007,09,18,23,32,10.80
2007,09,18,23,33,10.80
2007,09,18,23,34,10.80
2007,09,18,23,35,10.80
2007,09,18,23,36,10.80
2007,09,18,23,37,10.80
2007,09,18,23,38,10.80
2007,09,18,23,39,10.80
2007,09,18,23,40,10.80
2007,09,18,23,41,10.80
2007,09,18,23,42,10.70
2007,09,18,23,43,10.70
2007,09,18,23,44,10.70
2007,09,18,23,45,10.70
2007,09,18,23,46,10.70
2007,09,18,23,47,10.70
2007,09,18,23,48,10.70
2007,09,18,23,49,10.60
2007,09,18,23,50,10.60
2007,09,18,23,51,10.60
2007,09,18,23,52,10.60
2007,09,18,23,53,10.60
2007,09,18,23,54,10.60
2007,09,18,23,55,10.60
2007,09,18,23,56,10.60
2007,09,18,23,57,10.60
2007,09,18,23,58,10.50
2007,09,18,23,59,10.50
